Temperature
15 15 15 14 14 14 14 14 14 14 13 13 13 13 13 13 13 13 13 13 13 13 13 13 13 13 13 13 13 13 13 13 13 13 13 13 12 12
14 14 14 14 14 14 14 14 14 14 13 13 13 13 13 13 13 13 13 13 13 13 13 13 13 13 13 13 13 13 13 13 13 13 12 12 12 12
14 14 14 14 14 14 14 14 14 14 13 13 13 13 13 13 13 13 13 13 13 13 13 13 13 13 12 12 12 12 12 12 12 12 12 12 12 12
14 14 14 14 14 13 14 13 13 13 13 13 13 12 12 12 12 12 12 12 12 12 12 12 12 12 12 12 12 12 12 12 12 12 12 11 11 11
14 14 14 14 14 13 13 13 13 13 13 13 12 12 12 12 12 12 12 12 12 11 12 12 11 11 11 11 11 11 11 11 11 11 11 11 11 11
14 14 14 14 13 13 13 13 13 13 12 12 12 12 12 11 11 11 11 11 11 11 11 11 11 11 11 11 11 10 10 11 10 10 10 10 10 10
13 13 13 13 13 13 13 13 13 12 12 12 12 12 11 11 11 11 11 11 11 11 10 10 10 10 10 10 10 10 10 10 10 10 10 10 10 10
13 13 13 13 13 13 13 13 13 12 12 12 12 11 11 11 11 11 10 10 10 10 10 10 10 10 10 10 10 9 9 9 9 9 9 9 9 9
13 13 13 13 13 13 13 12 12 12 12 12 11 11 11 11 10 10 10 10 10 9 9 9 9 9 9 9 9 9 9 9 9 8 8 8 8 8
13 13 13 13 12 12 12 12 12 12 11 11 11 11 11 10 10 10 10 9 9 9 9 9 9 9 9 9 8 8 8 8 8 8 7 7 8 8
13 13 13 13 12 12 12 12 12 12 11 11 11 10 10 10 10 10 9 9 9 9 8 8 8 8 8 8 8 8 8 7 7 7 7 7 7 7
13 13 13 12 12 12 12 12 12 11 11 11 11 10 10 10 9 9 9 9 8 8 8 7 7 7 7 7 7 7 7 7 7 7 6 6 6 6
13 13 12 12 12 12 12 11 11 11 11 10 10 10 10 9 9 9 8 8 8 7 7 7 7 7 6 6 7 7 6 6 6 6 6 6 5 5
13 12 12 12 12 12 11 11 11 11 10 10 10 10 9 9 9 8 8 8 7 7 7 7 6 6 6 6 6 6 6 5 5 5 5 5 5 5
12 12 12 11 11 11 11 11 11 10 10 10 9 9 9 8 8 8 8 7 7 7 6 6 6 6 5 5 5 5 5 5 5 5 4 4 4 4
12 12 11 11 11 11 10 10 10 10 9 9 9 9 8 8 8 7 7 7 7 6 6 6 6 5 5 5 5 5 4 4 4 4 4 4 4 3
12 11 11 11 10 10 10 10 9 9 9 9 8 8 8 7 7 7 6 6 6 6 6 6 5 5 5 4 4 4 4 4 3 3 3 3 3 3
11 11 10 10 10 10 9 9 9 9 8 8 8 7 7 7 6 6 6 6 5 5 5 5 5 5 5 4 4 4 3 3 3 3 2 2 2 2
11 10 10 9 9 9 9 8 8 8 8 7 7 7 7 6 6 6 5 5 5 5 4 4 4 3 3 3 3 3 3 3 2 2 2 2 1 2
10 10 9 9 9 8 8 8 8 7 7 7 7 6 6 6 5 5 5 5 4 4 4 3 3 3 3 2 2 3 2 2 2 2 1 1 1 1
10 10 9 9 9 8 8 8 7 7 7 6 6 6 6 5 5 5 4 4 4 3 3 3 3 2 2 2 2 2 2 2 1 1 1 1 0 0
10 9 9 8 8 8 7 7 7 7 6 6 6 5 5 5 4 4 4 3 3 3 3 2 2 2 2 1 1 1 1 1 1 1 0 -0 -0 -0
9 9 8 8 8 7 7 7 6 6 6 6 5 5 5 4 4 4 3 3 3 2 2 2 2 1 1 1 1 0 0 0 0 0 0 -0 -0 -0
Wind_Speed
3 3 3 2 3 3 2 2 2 1 1 1 2 2 4 6 5 5 5 6 7 7 8 9 10 11 11 11 11 11 12 11 11 11 10 9 9 9
2 3 3 3 3 2 2 2 2 2 1 1 1 1 2 4 4 4 4 4 5 5 5 6 7 9 9 10 10 11 11 11 11 10 9 9 8 8
2 3 3 3 2 2 2 3 3 3 2 1 1 1 2 2 2 2 2 2 2 3 4 4 5 6 7 8 9 9 10 10 10 10 9 9 8 8
3 4 3 2 2 3 2 2 2 2 2 1 1 1 1 1 1 1 1 2 1 2 3 3 3 3 4 5 6 7 8 8 9 9 10 9 9 8
3 3 3 3 2 2 1 2 1 2 2 1 1 1 1 1 2 2 2 1 2 1 2 3 3 3 2 3 4 5 6 7 8 8 9 9 9 9
3 3 3 3 3 2 2 2 2 2 2 1 1 1 1 1 1 2 2 2 2 2 3 2 3 3 2 3 2 3 4 5 6 7 8 9 9 9
2 2 3 5 6 4 3 3 3 2 1 1 1 1 2 2 2 1 2 2 3 2 1 2 2 2 2 3 2 2 3 4 5 7 7 8 9 9
1 1 2 3 4 4 5 4 3 2 1 1 1 1 2 2 1 2 1 2 3 3 2 3 1 1 2 2 2 2 2 3 5 6 7 8 9 10
1 1 1 2 3 2 2 1 1 1 1 1 0 2 2 2 2 2 2 2 2 3 2 3 2 2 3 3 3 3 3 4 6 6 7 8 9 10
0 0 1 1 1 2 2 1 0 1 1 1 2 2 1 2 1 2 2 2 3 3 2 2 3 3 4 3 4 3 4 5 6 6 7 8 9 10
1 0 1 1 2 3 2 1 1 1 1 1 2 2 3 3 2 2 3 2 3 3 2 1 3 4 3 2 4 5 6 6 7 8 9 9 10 10
1 0 1 2 3 3 1 0 2 3 2 2 2 3 3 3 2 0 1 1 2 3 3 1 3 3 3 3 3 5 6 7 8 8 9 10 9 7
1 1 1 4 3 2 1 0 2 2 2 2 2 2 2 1 1 1 0 1 2 3 3 1 2 2 2 4 4 3 4 5 5 7 9 10 10 7
1 1 2 4 3 1 1 2 3 2 1 1 2 2 2 2 1 2 2 3 3 4 4 1 1 2 3 4 4 3 4 5 4 4 6 9 10 10
1 2 3 3 1 1 2 3 2 1 1 1 2 2 2 2 2 2 4 5 5 5 4 3 1 2 3 4 4 4 4 4 3 3 4 4 4 5
2 2 2 2 1 1 2 2 1 1 1 2 2 2 2 2 2 1 2 2 3 3 4 5 4 3 4 5 4 4 3 3 4 4 4 4 6 7
3 1 1 1 1 1 1 1 1 1 1 1 1 2 2 2 2 2 2 2 2 3 4 3 5 5 4 4 4 4 4 4 4 4 4 4 4 5
3 2 2 2 2 1 1 1 0 1 1 1 1 1 2 2 2 2 2 2 3 3 3 3 3 3 4 4 3 4 4 4 4 4 4 4 5 5
2 2 2 2 2 1 1 0 0 1 1 1 1 1 2 2 2 2 2 2 3 3 3 3 2 2 4 6 5 3 4 5 4 4 4 4 6 5
2 2 2 2 1 1 1 0 0 1 1 1 1 1 2 2 2 2 2 3 3 4 4 3 2 3 4 6 6 5 7 4 4 5 5 5 5 7
3 2 2 2 1 1 1 0 0 0 1 1 1 2 2 2 2 2 3 4 3 3 4 4 4 6 4 3 4 4 4 7 7 5 5 5 6 5
3 3 2 2 2 1 1 1 1 1 1 1 1 1 2 2 2 3 3 3 3 3 4 4 4 4 3 4 6 6 6 6 9 10 9 8 6 6
3 3 2 2 2 2 1 1 1 1 0 1 1 1 2 2 2 2 3 3 3 3 4 4 4 4 4 4 5 6 7 7 6 6 6 12 15 15
Wind_Direction
40 51 47 44 45 42 40 64 87 55 18 42 46 58 75 85 71 63 76 67 62 54 46 41 36 33 31 30 30 29 30 30 33 39 42 41 40 38
58 59 47 45 42 37 25 25 61 96 60 34 49 59 69 72 70 64 67 70 55 50 42 37 35 32 30 31 32 32 31 31 32 33 34 34 33 29
74 81 70 59 45 32 36 35 43 70 85 2 34 50 59 49 64 63 55 73 59 51 36 26 27 29 30 30 33 32 29 28 29 28 25 23 20 18
53 65 66 70 56 42 44 42 53 71 93 55 351 24 30 51 42 25 24 18 28 45 33 11 5 15 26 30 29 27 27 27 27 24 19 15 11 7
61 62 57 62 52 50 49 38 45 61 76 79 350 353 352 17 21 -0 7 1 346 354 13 353 352 344 3 9 13 17 20 19 19 17 12 8 4 359
76 67 57 62 47 36 47 29 49 54 48 47 2 337 343 341 35 350 342 342 334 340 8 345 333 334 320 330 335 351 1 5 8 8 6 3 358 355
90 88 88 86 76 60 55 38 41 41 28 24 347 351 342 352 340 311 322 317 322 334 340 312 297 292 288 296 293 311 336 350 356 358 356 354 352 349
124 122 123 105 102 91 77 64 64 58 36 26 2 340 320 326 328 339 331 346 320 319 338 308 308 280 269 272 266 276 305 326 334 338 338 339 339 338
76 113 91 96 110 127 102 68 41 55 157 164 298 295 312 320 330 333 328 320 283 291 334 308 316 311 306 281 266 265 289 312 316 318 323 327 329 329
287 146 146 140 135 127 112 92 224 226 221 195 197 255 292 322 320 305 289 305 309 320 346 297 313 309 312 293 276 292 310 312 315 318 318 319 322 323
215 207 157 133 101 98 93 356 325 303 290 212 218 256 297 311 340 4 339 333 311 306 330 321 308 311 303 285 291 306 319 314 311 311 311 312 317 319
194 136 106 118 104 93 115 349 309 302 321 336 320 307 308 311 313 207 238 284 302 307 320 345 316 335 316 303 323 317 313 309 308 310 312 311 313 316
184 181 150 139 132 117 75 281 279 300 318 314 303 307 326 340 3 2 295 204 244 267 289 340 311 315 286 297 305 314 325 319 316 317 312 309 309 308
202 168 151 150 156 184 239 272 303 328 317 314 315 314 317 314 322 356 328 298 261 258 283 297 271 287 295 296 295 302 312 314 321 324 317 315 310 307
149 132 145 167 179 228 266 285 308 289 257 266 280 286 281 290 337 349 336 326 313 300 308 322 287 277 274 277 285 293 304 305 324 321 317 313 308 313
171 151 156 195 210 228 266 271 241 228 219 239 259 278 302 321 318 303 300 303 303 303 317 323 324 296 280 277 276 288 296 296 310 311 309 309 318 316
159 155 170 176 212 234 238 244 236 260 268 261 276 301 309 308 300 300 300 303 300 300 305 310 323 320 299 277 282 282 288 292 293 305 315 308 298 311
148 170 198 203 211 216 211 245 278 276 281 274 258 266 281 287 292 299 298 292 292 295 299 302 317 323 324 309 275 284 294 292 294 297 298 299 295 303
153 196 197 197 206 205 187 180 290 304 316 332 298 295 298 301 302 301 306 306 298 296 297 300 306 310 307 302 294 293 289 293 295 294 287 286 287 291
191 203 198 192 187 173 155 141 5 352 348 340 339 331 321 320 327 319 305 304 304 303 305 306 302 288 274 278 281 290 302 290 293 292 289 287 285 295
202 200 192 179 172 163 161 166 182 275 310 332 334 331 330 326 317 317 315 314 307 302 305 301 295 305 297 304 301 298 303 318 311 300 297 300 303 303
184 180 183 172 166 167 176 183 209 260 308 322 324 329 329 328 312 306 313 316 313 308 306 303 313 324 322 308 301 302 304 309 315 308 300 296 291 292
183 173 171 167 162 167 172 192 208 225 255 306 319 323 324 320 316 315 311 308 309 314 316 313 315 315 307 301 299 301 304 309 310 311 303 304 296 293
Height
1560 1560 1560 1560 1560 1560 1560 1560 1561 1560 1561 1561 1560 1559 1558 1557 1556 1555 1554 1553 1551 1550 1548 1546 1544 1542 1540 1538 1536 1534 1532 1530 1528 1526 1526 1526 1526 1526
1560 1560 1560 1560 1560 1560 1560 1560 1560 1560 1560 1560 1560 1560 1559 1558 1557 1555 1554 1553 1551 1550 1548 1546 1545 1543 1541 1539 1537 1535 1533 1531 1529 1528 1527 1526 1526 1526
1560 1560 1560 1560 1560 1560 1560 1560 1560 1560 1559 1560 1560 1559 1558 1557 1556 1555 1554 1552 1551 1550 1548 1546 1545 1543 1541 1539 1537 1535 1533 1532 1530 1529 1528 1527 1526 1525
1561 1560 1560 1560 1560 1560 1559 1559 1559 1559 1559 1559 1559 1558 1558 1557 1556 1554 1553 1552 1551 1549 1548 1546 1544 1542 1541 1539 1537 1535 1533 1532 1530 1528 1527 1526 1525 1524
1561 1560 1560 1560 1560 1560 1559 1559 1559 1559 1559 1558 1558 1558 1557 1556 1555 1554 1552 1551 1550 1548 1547 1545 1543 1542 1540 1538 1537 1535 1533 1531 1529 1528 1526 1525 1524 1523
1560 1560 1560 1560 1559 1559 1559 1559 1558 1558 1558 1557 1557 1556 1556 1555 1554 1552 1551 1550 1548 1547 1546 1544 1542 1541 1539 1537 1535 1534 1532 1530 1529 1527 1525 1524 1522 1521
1560 1560 1560 1559 1559 1559 1558 1558 1558 1557 1557 1556 1555 1555 1554 1553 1552 1551 1549 1548 1547 1545 1544 1542 1540 1539 1537 1536 1534 1532 1531 1529 1527 1525 1523 1522 1520 1518
1559 1559 1559 1558 1558 1558 1557 1557 1557 1556 1555 1555 1554 1553 1552 1552 1550 1549 1548 1546 1544 1544 1542 1540 1539 1537 1535 1534 1532 1531 1529 1527 1525 1523 1522 1520 1518 1516
1558 1558 1557 1557 1557 1557 1556 1556 1555 1555 1554 1554 1553 1552 1551 1550 1549 1547 1546 1544 1543 1542 1540 1537 1536 1534 1533 1531 1530 1529 1527 1525 1523 1521 1519 1517 1515 1514
1556 1556 1556 1556 1556 1555 1555 1554 1554 1553 1552 1552 1551 1550 1549 1548 1547 1545 1544 1542 1541 1539 1538 1535 1533 1532 1530 1529 1528 1526 1524 1522 1520 1518 1516 1514 1513 1511
1554 1554 1554 1554 1554 1554 1553 1552 1552 1551 1550 1549 1548 1547 1546 1545 1544 1543 1541 1539 1537 1536 1535 1533 1531 1529 1527 1526 1525 1523 1521 1519 1517 1515 1513 1511 1510 1508
1552 1552 1552 1552 1552 1551 1551 1550 1549 1548 1548 1546 1546 1545 1544 1542 1541 1540 1538 1537 1534 1533 1532 1531 1528 1526 1524 1523 1522 1520 1518 1516 1514 1512 1510 1508 1506 1504
1549 1549 1550 1550 1549 1549 1548 1547 1546 1546 1544 1543 1542 1541 1540 1539 1538 1537 1536 1534 1532 1531 1530 1528 1526 1524 1522 1519 1518 1517 1515 1513 1511 1509 1507 1505 1503 1501
1547 1547 1547 1547 1546 1546 1545 1544 1543 1543 1541 1540 1539 1538 1537 1536 1535 1534 1533 1531 1530 1529 1527 1526 1523 1521 1519 1516 1514 1513 1511 1509 1507 1505 1503 1501 1499 1497
1544 1544 1544 1544 1543 1543 1542 1541 1540 1539 1538 1537 1536 1535 1534 1533 1532 1530 1529 1528 1526 1525 1524 1522 1520 1518 1516 1514 1511 1509 1507 1505 1503 1501 1499 1497 1495 1493
1541 1541 1541 1540 1540 1540 1539 1538 1538 1536 1535 1534 1533 1532 1531 1530 1528 1527 1525 1524 1522 1521 1520 1518 1516 1515 1512 1510 1508 1505 1503 1501 1499 1497 1494 1492 1490 1488
1537 1537 1537 1537 1537 1536 1536 1535 1534 1533 1532 1531 1530 1529 1527 1526 1525 1523 1522 1520 1519 1517 1515 1514 1512 1511 1508 1506 1503 1501 1499 1497 1495 1493 1490 1487 1485 1483
1534 1534 1534 1534 1534 1533 1533 1532 1531 1530 1529 1528 1527 1525 1524 1522 1521 1520 1519 1517 1515 1513 1512 1510 1508 1505 1503 1501 1501 1497 1495 1493 1491 1488 1485 1482 1479 1478
1531 1531 1531 1531 1530 1530 1530 1529 1528 1527 1526 1525 1523 1522 1521 1519 1517 1516 1515 1513 1512 1510 1508 1507 1504 1502 1499 1496 1495 1494 1491 1488 1486 1483 1481 1478 1475 1473
1527 1527 1527 1527 1527 1527 1526 1526 1525 1524 1523 1522 1520 1519 1517 1516 1514 1512 1511 1509 1508 1506 1504 1503 1501 1499 1496 1494 1490 1488 1488 1485 1481 1478 1476 1473 1471 1468
1524 1524 1524 1524 1523 1523 1523 1522 1521 1521 1520 1519 1517 1516 1514 1513 1511 1509 1508 1506 1504 1502 1500 1498 1497 1495 1493 1490 1486 1483 1482 1480 1478 1475 1471 1468 1465 1462
1520 1520 1520 1520 1519 1519 1519 1518 1518 1517 1516 1515 1514 1512 1511 1509 1507 1506 1504 1502 1500 1498 1496 1494 1492 1490 1488 1485 1482 1479 1476 1474 1472 1470 1468 1465 1462 1458
1516 1516 1516 1516 1516 1516 1515 1515 1514 1513 1512 1511 1510 1508 1507 1505 1504 1502 1500 1498 1497 1494 1492 1490 1487 1485 1483 1481 1478 1474 1472 1469 1466 1464 1462 1460 1458 1456